COSMOS 397 DEB *, 5763

Orbit data source: Space-Track

COSMOS 397 DEB *, 5763 is space debris in LEO originally from a launch on Thu, 25 Feb 1971 UTC launched from the Tyuratam Missile And Space Complex (TTMTR). Debris objects in space refer to the collection of defunct objects orbiting the Earth. Examples of debris include non-operational satellites, rocket bodies, and fragments generated from explosions, collisions, or faulty payload assembly.

Loading next visibility...
Identifier
5763, 1971-015CF
Orbit
LEO
Country
Flag of CISCIS
Related business
Manufacturer
Unknown
Mission
Spacecraft
Bus & Motor
Unknown
Mass
Unknown
Launch date (UTC)
1971-02-25 (55 years ago)
Launch vehicle
Unknown
Launch site
Tyuratam Missile And Space Complex (TTMTR)
Object type
Payload
Rocket body
Debris
Shape & HBR
Unknown shape, 0.1 m
Radar Cross Section
Small (<0.1 m²)

Expand to show TLE details & history
Last TLE update: 15 hours ago

TLE from 15 hours ago
0 COSMOS 397 DEB *
1 05763U 71015CF  25349.57301221  .00002359  00000-0  29946-2 0  9990
2 05763  66.9016 323.3033 0360986  15.2857 345.8765 13.40899183628255
Epoch: 2025-12-15T13:45Z
TLE epoch observation values (Epoch: 2025-12-15T13:45:08.254Z)
Latitude
-0.00005°
Longitude
32.54924°
Altitude
846.552 km
Speed
7.558 km/s
True Right ascension
21h 33m 12s
True Declination
0° 00' 00"
Sunlit
Object was in daylight at epoch
Visualization orbit readout
Latitude
Unknown
Longitude
Unknown
Altitude
Unknown
Speed
Unknown
Apparent Right ascension
Unknown
Apparent Declination
Unknown
Sunlit
N/A
Visualization observer readout
Local Sidereal Time
03:06:11
Azimuth
Unknown
Elevation
Unknown
Doppler factor
Unknown
Orbital elements
Apogee altitude
1,374.457 km
Perigee altitude
834.242 km
Semi-major axis
7,482.487 km
Eccentricity
0.0361
Inclination
66.9016°
RAAN
323.3033°
Arg. of periapsis
15.2857°
True anomaly
344.82108°
Mean anomaly
345.8765°
Eccentric anomaly
345.35352°
Mean motion
3.35331 °/min
Orbital period
107.36 mins
BSTAR
0.0029946
Loading maneuver chart data...
Computing Atmospheric mass density...

Documentation

Showing up to 5 results
|